Tracking 26218 objects as of 26-Sep-2022
HD Live streaming from Space Station
objects crossing your sky now

FLOCK 4X 11

Track FLOCK 4X 11 now!
10-day predictions


NORAD ID: 51049
Int'l Code: 2022-002BT
Perigee: 516.3 km
Apogee: 530.3 km
Inclination: 97.5 °
Period: 95.0 minutes
Semi major axis: 6894 km
RCS: Unknown
Launch date: January 13, 2022
Source: United States (US)
Launch site: AIR FORCE EASTERN TEST RANGE (AFETR)
aabbcc
Your satellite tracking list
Your tracking list is empty




NASA's NSSDC Master Catalog

Two Line Element Set (TLE):
1 51049U 22002BT  22268.80495094  .00005337  00000-0  27639-3 0  9992
2 51049  97.4747 334.3776 0010168  85.2911 274.9483 15.16586100 38623
Source of the keplerian elements: AFSPC